NOAA 16 DEB, 41399

Orbit data source: Space-Track

NOAA 16 DEB, 41399 is space debris in SSO originally from a launch on Thu, 21 Sep 2000 UTC launched from the Air Force Western Test Range (AFWTR). Debris objects in space refer to the collection of defunct objects orbiting the Earth. Examples of debris include non-operational satellites, rocket bodies, and fragments generated from explosions, collisions, or faulty payload assembly.

Loading next visibility...
Identifier
41399, 2000-055KC
Orbit
SSO
Country
Flag of USUS
Related business
Manufacturer
Unknown
Mission
Spacecraft
Bus & Motor
Unknown
Mass
Unknown
Launch date (UTC)
2000-09-21 (26 years ago)
Launch vehicle
Unknown
Launch site
Air Force Western Test Range (AFWTR)
Object type
Payload
Rocket body
Debris
Shape & HBR
Unknown shape, 0.1 m
Radar Cross Section
Small (<0.1 m²)

Expand to show TLE details & history
Last TLE update: 23 hours ago

TLE from 23 hours ago
0 NOAA 16 DEB
1 41399U 00055KC  26123.53525180  .00002884  00000-0  14210-2 0  9991
2 41399  98.7368 162.1649 0037530 348.1198  11.9089 14.17952647527581
Epoch: 2026-05-03T12:50Z
TLE epoch observation values (Epoch: 2026-05-03T12:50:45.755Z)
Latitude
0.00005°
Longitude
108.03684°
Altitude
808.717 km
Speed
7.463 km/s
True Right ascension
10h 48m 39s
True Declination
0° 00' 00"
Sunlit
Object was in full shadow at epoch
Visualization orbit readout
Latitude
Unknown
Longitude
Unknown
Altitude
Unknown
Speed
Unknown
Apparent Right ascension
Unknown
Apparent Declination
Unknown
Sunlit
N/A
Visualization observer readout
Local Sidereal Time
19:35:34
Azimuth
Unknown
Elevation
Unknown
Doppler factor
Unknown
Orbital elements
Apogee altitude
856.498 km
Perigee altitude
802.398 km
Semi-major axis
7,207.585 km
Eccentricity
0.00375
Inclination
98.7368°
RAAN
162.1649°
Arg. of periapsis
348.1198°
True anomaly
11.99806°
Mean anomaly
11.9089°
Eccentric anomaly
11.95344°
Mean motion
3.54698 °/min
Orbital period
101.49 mins
BSTAR
0.001421
Loading maneuver chart data...
Computing Atmospheric mass density...
Loading historical data...
Loading historical data...
Loading historical data...
Loading historical data...
Loading historical data...
Loading historical data...
Loading historical data...

Documentation

Showing up to 5 results
|